{"data":{"norad_id":40485,"epoch":"2026-05-25T06:00:02.000160Z","epoch_age_seconds":49849,"freshness":"FRESH","line1":"1 40485U 15011D   26145.25002315 -.00000132  00000+0  00000+0 0  9990","line2":"2 40485  71.8166 349.1094 8339894 166.9312 118.6752  0.28348014  1375","mean_motion":0.28348014,"eccentricity":0.8339894,"inclination_deg":71.8166,"raan_deg":349.1094,"arg_perigee_deg":166.9312,"mean_anomaly_deg":118.6752,"bstar":0,"rev_number":137,"period_min":5079.7209285984,"perigee_km":9871.9578962697,"apogee_km":173143.54287317,"semimajor_km":97885.887384719,"source":"CELESTRAK","updated_at":"2026-05-25T13:38:24.644716Z"}}